925  
NZUS93 KARX 092310  
HRRWXR  
 
CURRENT HOURLY OBSERVATIONS ACROSS  
MUCH OF THE UPPER MISSISSIPPI VALLEY  
NATIONAL WEATHER SERVICE LA CROSSE WI  
600 PM CDT TUE AUG 09 2022  
 
   
..SOUTHEAST MINNESOTA
 
 
 
CITY SKY/WX TMP DP RH WIND PRES REMARKS  
ROCHESTER SUNNY 75 62 64 SW5 30.11S  
WINONA SUNNY 79 63 57 CALM 30.08F  
AUSTIN SUNNY 79 63 57 SW6 30.11S  
ALBERT LEA SUNNY 77 63 61 S6 30.10S  
DODGE CENTER N/A 75 61 60 S7 30.11S  
PRESTON SUNNY 76 60 56 CALM 30.11F  
OWATONNA SUNNY 77 63 61 S3 30.09S  
FARIBAULT SUNNY 79 63 57 CALM 30.09S  

 
   
..ELSEWHERE IN MINNESOTA
 
 
 
CITY SKY/WX TMP DP RH WIND PRES REMARKS  
MINNEAPOLIS SUNNY 82 56 40 S9 30.06F  
INTNL FALLS SUNNY 80 60 50 NW13 29.97S  
DULUTH SUNNY 81 59 47 SW14 30.03S  
RED WING SUNNY 81 57 44 SW5 30.06S  
REDWOOD FALLS SUNNY 81 61 50 S10 30.06S  
MANKATO SUNNY 78 64 61 S9 30.08F  
WORTHINGTON SUNNY 79 62 56 S8 30.10S  
FAIRMONT SUNNY 78 62 57 S6 30.10S  

 
   
..SOUTHWEST WISCONSIN
 
 
 
CITY SKY/WX TMP DP RH WIND PRES REMARKS  
LA CROSSE SUNNY 81 60 48 SW5 30.07F  
PRAIRIE DU CHI SUNNY 78 59 50 CALM 30.09S  
BOSCOBEL SUNNY 79 59 50 W6 30.09S  
LONE ROCK SUNNY 79 58 48 NW5 30.09S  
PLATTEVILLE SUNNY 77 61 58 CALM 30.11F  
FORT MC COY SUNNY 79 58 48 W7 30.10S  
CAMP DOUGLAS MOSUNNY 81 59 47 W7 30.07F  
MAUSTON-NEW LI CLEAR 79 60 51 W6 30.08F  
VIROQUA CLEAR 77 61 58 W5 30.11S  
WIS DELLS SUNNY 77 57 50 CALM 30.10S  

 
   
..ELSEWHERE IN WISCONSIN
 
 
 
CITY SKY/WX TMP DP RH WIND PRES REMARKS  
MILWAUKEE MOSUNNY 72 52 49 E3 30.10S  
MADISON MOSUNNY 79 57 46 N6 30.09S  
GREEN BAY SUNNY 79 61 53 SW3 30.07F  
EAU CLAIRE SUNNY 81 58 45 SW10 30.07F  
BLACK RVR FLS CLEAR 80 59 48 W3 30.08F  
MEDFORD SUNNY 74 60 59 SW7 30.10S  
WAUSAU SUNNY 80 57 45 SW7 30.07F  
WIS RAPIDS SUNNY 80 56 43 VRB3 30.09F  
MARSHFIELD SUNNY 77 59 53 W7 30.09F  
RICE LAKE N/A 81 57 44 SW7 30.09F  

 
   
..NORTHEAST IOWA
 
 
 
CITY SKY/WX TMP DP RH WIND PRES REMARKS  
WATERLOO SUNNY 80 61 52 CALM 30.08F  
DUBUQUE SUNNY 77 60 55 SW3 30.11S  
DECORAH SUNNY 77 59 53 CALM 30.09S  
MASON CITY SUNNY 79 61 53 S3 30.11F  
CHARLES CITY SUNNY 77 64 65 SW5 30.10F  
OELWEIN SUNNY 77 59 53 CALM 30.11S  

 
   
..ELSEWHERE IN IOWA
 
 
 
CITY SKY/WX TMP DP RH WIND PRES REMARKS  
DES MOINES SUNNY 83 59 44 E6 30.07F  
IOWA CITY SUNNY 81 59 47 N8 30.10F  
FORT DODGE SUNNY 81 60 48 SW6 30.09F  
MARSHALLTOWN SUNNY 81 59 47 E3 30.08F  
CEDAR RAPIDS SUNNY 78 61 55 SE3 30.09S  

 
   
..NORTHERN ILLINOIS
 
 
 
CITY SKY/WX TMP DP RH WIND PRES REMARKS  
CHICAGO-OHARE MOSUNNY 75 53 46 NE10 30.09S  
CHICAGO-MIDWAY MOSUNNY 76 55 48 NE9 30.09S  
MOLINE MOSUNNY 77 61 57 NE6 30.08F  
ROCKFORD MOSUNNY 80 59 48 N5 30.10S  
PEORIA CLOUDY 77 61 57 NE7 30.07S  

 
 
NOTE: "FAIR" INDICATES FEW OR NO CLOUDS BELOW 12,000 FEET WITH NO  
SIGNIFICANT WEATHER AND/OR OBSTRUCTIONS TO VISIBILITY. WIND  
SPEEDS ARE IN MILES-PER-HOUR.  
 
 
CLICK HERE TO GO TO PREVIOUS BULLETINS.

The Nexlab WI Page
The Nexlab IA Page
The Nexlab MN Page Main Text Page